Hanford, WA
on Thursday, January 17, 2013

Thursday
Previous Day Next Day
Daily Summary
 ActualAverage (KMWH)Record (KMWH)
Temperature
Mean Temperature °F 30°F  
Max Temperature 30°F 36°F 55°F (2011)
Min Temperature 27°F 24°F 10°F (1984)
Degree Days
Heating Degree Days 36 35  
Month to date heating degree days 614  
Since 1 July heating degree days 3201  
Cooling Degree Days 0 0  
Month to date cooling degree days 0  
Year to date cooling degree days 0  
Moisture
Dew Point 26°F   
Average Humidity 88    
Maximum Humidity 94    
Minimum Humidity 83    
Precipitation
Precipitation 0.00 in 0.03 in 0.52 in (1999)
Month to date precipitation 0.78  
Year to date precipitation 0.78  
Wind
Wind Speed 3 mph   
Max Wind Speed 5 mph   
Max Gust Speed mph   
Visibility 8 miles   
Events     

Key: T is trace of precipitation, MM is missing value
Source: NWS Daily Summary
Time(PST)TemperatureDew PointHumidity Pressure Visibility Wind DirectionWind SpeedGust SpeedPrecipitationEvents Conditions
12:50 AM 29.1°F 25.9°F 88% 30.62 in 10.0 miles SSW 3.5 mph - N/A   Overcast
1:50 AM 29.5°F 25.5°F 85% 30.62 in 15.0 miles SSW 2.3 mph - N/A   Overcast
2:50 AM 29.5°F 25.7°F 86% 30.62 in 10.0 miles South 2.3 mph - N/A   Overcast
3:50 AM 29.3°F 25.7°F 86% 30.61 in 10.0 miles SSW 4.6 mph - N/A   Overcast
4:50 AM 28.9°F 26.1°F 89% 30.61 in 10.0 miles SSW 3.5 mph - N/A   Overcast
5:50 AM 28.8°F 25.7°F 88% 30.61 in 10.0 miles SSW 2.3 mph - N/A   Overcast
6:50 AM 28.6°F 25.7°F 89% 30.61 in 10.0 miles NE 2.3 mph - N/A   Overcast
7:50 AM 28.2°F 26.2°F 92% 30.61 in 6.0 miles East 2.3 mph - N/A   Overcast
8:50 AM 28.4°F 26.8°F 94% 30.61 in 6.0 miles ENE 3.5 mph - N/A   Overcast
9:50 AM 28.8°F 27.1°F 94% 30.62 in 6.0 miles ENE 4.6 mph - N/A   Overcast
10:50 AM 29.7°F 26.1°F 86% 30.62 in 7.0 miles SE 2.3 mph - N/A   Overcast
11:50 AM 29.8°F 26.6°F 88% 30.62 in 7.0 miles ENE 3.5 mph - N/A   Overcast
12:50 PM 30.4°F 25.7°F 83% 30.58 in 8.0 miles NE 3.5 mph - N/A   Overcast
1:50 PM 29.8°F 25.2°F 83% 30.57 in 8.0 miles ESE 2.3 mph - N/A   Overcast
2:50 PM 29.7°F 25.2°F 83% 30.54 in 7.0 miles ESE 2.3 mph - N/A   Overcast
3:50 PM 29.1°F 25.5°F 86% 30.51 in 5.0 miles ESE 4.6 mph - N/A   Overcast
4:50 PM 29.7°F 25.0°F 83% 30.51 in 5.0 miles East 4.6 mph - N/A   Overcast
5:50 PM 28.4°F 25.2°F 88% 30.51 in 5.0 miles ESE 3.5 mph - N/A   Overcast
6:50 PM 28.2°F 25.2°F 88% 30.50 in 5.0 miles East 2.3 mph - N/A   Overcast
10:50 PM 27.7°F 25.3°F 91% 30.45 in 8.0 miles SE 2.3 mph - N/A   Overcast
11:50 PM 27.7°F 25.2°F 90% 30.43 in 10.0 miles East 4.6 mph - N/A   Overcast
Moon Phase
Jan. 17 Jan. 18 Jan. 26 Feb. 03 Feb. 10
Sunrise:07:36 AM (PST) Moon Rise:10:19 AM (PST)1/17
Sunset:04:41 PM (PST) Moon Set:No Moon Set/

Copyright © 2014 The Weather Underground, Inc.